Location: Axtheid
(49.6213°N, 11.8205°E)
Time: 13:22:02
(UTC+00:00)

ATLAS 5 CENTAUR R/B - Pass Details

Date: 24 January 2021
Orbit: 511 x 1147 km, 63.3° (Epoch: 16 February)

Event Time Altitude Azimuth Distance (km) Brightness Sun altitude
Rises 19:10:19 0° 299° (WNW) 2,890 6.0 -31.3°
Reaches altitude 10° 19:13:13 10° 320° (NW) 2,089 4.8 -31.8°
Enters shadow 19:15:08 16° 344° (NNW) 1,802 4.1 -32.1°
